This is the latest recevied weather packets stored in our database for station/object KM4KMS. If no packets are shown the sender has not sent any weather packets the latest 10 day(s).
| Time | Temp. | Humidity | Pressure | Rain* | Wind** | Luminosity | Snow |
|---|---|---|---|---|---|---|---|
| 1778168845 | 13.33° C | 54% | 1015.2 hPa | 0 mm | - | 821 W/m² | - |
| 1778168542 | 13.89° C | 52% | 1015.4 hPa | 0 mm | - | 790 W/m² | - |
| 1778168238 | 13.89° C | 53% | 1015.3 hPa | 0 mm | - | 771 W/m² | - |
| 1778167935 | 13.89° C | 54% | 1015.1 hPa | 0 mm | - | 764 W/m² | - |
| 1778167632 | 13.89° C | 53% | 1015.4 hPa | 0 mm | - | 758 W/m² | - |
| 1778167327 | 12.78° C | 49% | 1015.3 hPa | 0 mm | - | 768 W/m² | - |
| 1778167024 | 13.33° C | 51% | 1015.2 hPa | 0 mm | - | 775 W/m² | - |
| 1778166720 | 12.78° C | 52% | 1015.4 hPa | 0 mm | - | 755 W/m² | - |
| 1778166417 | 13.89° C | 51% | 1015.2 hPa | 0 mm | - | 763 W/m² | - |
| 1778166114 | 12.78° C | 51% | 1015.1 hPa | 0 mm | - | 755 W/m² | - |
| 1778165810 | 13.89° C | 52% | 1015.1 hPa | 0 mm | - | 730 W/m² | - |
| 1778165507 | 13.33° C | 52% | 1015.3 hPa | 0 mm | - | 724 W/m² | - |
| 1778165203 | 13.89° C | 54% | 1015.1 hPa | 0 mm | - | 701 W/m² | - |
| 1778164902 | 13.33° C | 54% | 1015.3 hPa | 0 mm | - | 631 W/m² | - |
| 1778164598 | 12.78° C | 51% | 1015.2 hPa | 0 mm | - | 704 W/m² | - |
| 1778164295 | 12.22° C | 55% | 1015.3 hPa | 0 mm | - | 655 W/m² | - |
| 1778163990 | 13.33° C | 50% | 1015 hPa | 0 mm | - | 610 W/m² | - |
| 1778163688 | 13.33° C | 54% | 1015.3 hPa | 0 mm | - | 540 W/m² | - |
| 1778163384 | 13.33° C | 52% | 1015.1 hPa | 0 mm | - | 499 W/m² | - |
| 1778163081 | 12.78° C | 49% | 1015.3 hPa | 0 mm | - | 556 W/m² | - |
| 1778162777 | 12.78° C | 53% | 1015.1 hPa | 0 mm | - | 553 W/m² | - |
| 1778162475 | 13.33° C | 54% | 1015.2 hPa | 0 mm | - | 536 W/m² | - |
| 1778162172 | 12.78° C | 52% | 1015.1 hPa | 0 mm | - | 528 W/m² | - |
| 1778161869 | 12.78° C | 53% | 1015.3 hPa | 0 mm | - | 509 W/m² | - |
| 1778161565 | 12.78° C | 58% | 1015.2 hPa | 0 mm | - | 460 W/m² | - |
* Rain latest hour (hover to see other rain measurements)
** Current wind speed in m/s (hover to see current wind gust speed)